Theta_e
296 288 286 286 288 290 292 291 291 293 292 291 290 289 286 285 286 288 291 294 294 291 288 287 288 288 290 290 292 294 297 296 297 298 299 300 301 302 302 303 304 305 307 310 313 315 315 316 316 316 315 315 317 319 318 318 318 321 327 328 327 329 327 326 325 326 327 328 328 328 328 330 332 333 334 334 334 335 338 339 339 338 337 336 337 338
296 287 287 291 292 293 293 293 292 292 291 291 289 287 286 287 285 289 291 294 296 291 288 290 289 288 290 290 292 294 295 296 298 298 299 300 300 301 301 302 303 304 306 309 310 312 313 314 315 315 315 318 315 318 318 317 318 319 321 323 326 324 326 325 326 327 329 330 329 328 328 330 332 332 333 333 334 334 336 338 338 337 337 337 336 337
288 287 291 293 295 295 295 293 293 292 291 289 289 287 286 288 288 291 291 294 297 293 287 289 289 288 290 293 294 295 295 297 299 300 300 300 300 300 301 301 302 303 303 305 307 309 311 312 313 313 313 314 315 315 316 318 320 320 319 318 321 325 324 328 328 327 328 329 332 332 331 331 331 333 333 334 335 336 336 337 337 337 337 337 337 337
286 287 293 296 295 294 294 293 292 291 290 288 287 285 284 288 289 283 290 294 294 292 288 290 290 288 292 293 294 297 298 298 300 301 300 301 300 300 301 302 302 301 303 304 306 307 308 309 310 311 311 311 312 312 313 316 318 318 319 319 319 321 323 327 329 332 331 331 332 333 334 336 333 329 330 332 333 334 334 334 336 337 337 337 337 337
288 292 296 295 295 294 293 293 292 290 287 289 289 287 287 291 290 289 287 293 292 293 294 290 285 284 288 290 291 295 298 299 299 301 301 301 302 302 302 302 303 303 304 304 305 306 306 307 307 308 310 309 309 310 311 313 315 316 316 318 320 319 320 324 329 330 330 330 333 335 336 333 329 329 329 328 329 331 332 333 333 335 337 337 337 337
288 293 295 294 293 293 293 290 289 289 286 286 290 291 291 291 290 293 291 291 285 284 289 290 280 279 283 288 289 292 294 296 299 299 298 299 300 301 300 300 303 304 305 304 304 305 305 305 306 307 307 308 308 309 311 312 312 311 312 315 318 318 319 320 322 325 329 329 329 330 331 328 325 323 324 325 325 327 329 330 333 335 337 337 337 337
290 297 295 293 292 292 291 289 292 293 287 287 288 293 291 291 291 290 291 288 281 280 286 292 282 276 283 288 290 292 293 295 297 297 298 299 300 300 300 300 301 302 303 303 304 304 304 304 305 305 306 307 308 308 310 310 310 310 311 312 315 314 316 318 318 321 326 327 328 330 331 332 330 326 326 328 330 330 330 331 330 332 335 337 337 336
295 293 293 292 292 291 289 287 291 292 287 286 291 293 292 291 290 290 291 289 283 289 290 290 285 281 280 285 289 292 293 294 294 295 296 298 298 299 299 300 300 301 302 302 302 303 303 304 304 304 305 306 307 308 309 308 309 309 310 311 311 312 313 314 315 317 322 325 326 327 329 331 331 331 331 331 331 332 332 330 331 333 333 335 336 336
295 293 292 292 290 288 288 291 294 295 290 288 292 294 292 292 291 291 290 287 287 288 282 283 290 282 280 286 292 291 291 291 293 294 295 297 298 298 299 299 300 301 302 302 302 302 303 303 304 305 305 306 307 307 307 307 307 308 309 310 310 309 310 311 312 315 316 321 325 325 327 328 330 332 333 334 333 332 332 331 332 332 332 334 335 336
294 294 294 293 290 289 292 293 294 294 290 291 294 295 295 293 293 293 287 290 285 284 279 282 288 281 278 284 287 291 289 290 291 294 296 297 297 297 298 299 300 301 302 303 302 302 302 303 303 304 305 305 306 307 308 306 306 307 307 308 308 307 308 310 310 311 312 315 320 324 325 326 327 329 331 334 333 331 331 331 331 332 332 333 333 334
293 302 301 295 291 292 292 293 295 294 294 295 294 293 290 291 289 290 288 285 282 278 281 287 291 285 279 284 287 286 287 291 291 293 296 297 298 298 298 298 299 300 301 301 301 302 302 303 303 303 303 304 305 305 305 306 306 306 307 307 306 307 308 308 308 309 309 311 314 319 323 324 324 326 327 328 330 332 331 330 331 331 332 333 333 333
295 297 296 295 300 297 295 294 295 296 296 294 291 289 287 285 284 281 280 282 278 274 281 288 289 288 279 281 287 291 293 294 294 293 294 295 297 297 297 298 299 300 300 301 301 300 301 301 302 302 302 303 304 304 304 304 305 306 306 306 305 306 307 307 307 307 307 309 310 313 316 320 324 325 326 327 327 330 331 331 331 332 332 332 332 333
289 290 293 297 303 297 293 291 290 293 292 292 288 287 283 277 277 276 275 275 275 275 282 289 290 284 281 283 289 293 294 294 295 296 295 296 296 296 297 298 299 299 300 300 300 300 300 300 300 301 302 302 302 302 303 303 304 305 306 305 304 305 305 306 306 306 306 307 308 309 311 314 319 324 325 326 326 328 329 331 331 331 331 331 329 331
286 292 294 297 298 299 294 288 284 286 288 289 285 282 278 276 273 270 271 275 275 280 285 287 290 281 283 287 293 293 294 296 296 296 297 296 296 295 296 297 298 299 299 300 300 300 299 300 301 301 301 302 301 302 302 303 305 304 305 304 305 304 305 306 306 306 306 307 307 308 309 310 312 317 323 325 326 327 328 330 331 331 331 331 332 332
277 281 286 294 290 298 294 289 288 287 288 289 291 288 282 277 275 273 276 272 273 277 281 288 283 277 281 282 295 295 296 297 298 298 297 297 297 296 296 297 298 298 298 299 299 300 300 300 300 300 301 300 301 302 302 302 302 302 303 304 304 304 304 305 305 306 306 306 306 307 308 308 310 313 318 323 326 327 326 327 329 330 332 332 333 333
288 283 290 296 299 298 296 298 296 291 286 289 291 289 284 284 281 278 276 280 278 278 276 279 280 283 283 293 297 298 299 298 300 298 298 297 297 297 296 296 297 297 298 299 299 299 299 300 300 300 300 300 300 301 301 301 302 302 302 303 303 303 304 304 306 305 305 305 306 306 306 307 310 313 316 320 326 328 328 328 328 328 330 332 333 334
284 281 291 294 296 294 296 298 296 293 282 286 288 282 287 291 287 280 278 283 281 277 275 277 283 285 289 291 294 295 296 296 298 299 299 298 298 297 297 296 296 297 298 298 298 298 299 299 299 299 299 299 301 301 300 301 302 302 302 302 303 303 304 303 304 304 304 305 305 305 306 307 308 309 310 313 317 322 327 329 329 329 330 331 333 333
281 282 289 291 291 294 298 296 296 296 292 288 283 284 291 294 292 283 276 276 276 274 273 281 279 280 283 278 292 294 293 295 296 299 301 300 300 299 298 298 298 298 298 298 298 299 299 299 300 299 299 299 299 300 300 302 302 303 303 302 302 303 302 303 303 303 303 304 304 305 306 306 307 308 309 312 315 318 322 326 328 331 331 331 333 333
286 279 283 291 292 294 298 295 293 296 296 289 287 293 287 277 280 282 280 273 271 271 271 276 281 279 281 281 287 289 292 293 296 299 300 300 299 298 297 298 298 298 298 298 297 297 298 298 298 298 298 299 300 303 301 302 303 302 302 303 303 302 302 302 303 303 303 304 304 305 306 306 307 308 310 311 313 314 316 320 325 327 329 331 332 332
287 279 280 289 292 294 294 292 286 289 293 298 296 293 295 287 283 282 282 279 279 271 273 273 280 276 285 283 289 290 293 293 295 296 297 298 296 295 295 296 296 296 296 297 297 297 298 298 298 298 298 298 299 300 301 301 302 301 301 302 302 303 302 302 301 302 302 303 304 304 305 306 307 308 309 309 310 311 312 315 319 324 327 329 331 332
284 286 277 282 291 291 284 287 286 286 286 289 288 285 288 288 292 287 285 282 278 274 272 271 272 275 284 290 292 293 294 295 295 295 295 295 295 295 296 296 296 296 296 296 296 297 297 298 297 299 298 299 300 303 301 301 301 301 301 301 301 300 301 301 301 301 301 302 303 304 304 305 305 305 307 307 309 310 312 314 317 322 327 329 329 331
283 282 280 281 284 282 286 291 293 293 292 287 285 286 289 287 285 279 279 285 285 280 277 274 273 278 285 296 296 294 295 296 297 296 295 295 295 295 296 295 297 296 296 296 296 297 297 297 297 297 300 299 299 299 300 301 300 300 300 301 301 301 300 300 301 301 301 302 303 303 303 304 304 305 306 307 308 309 310 312 315 320 326 327 329 330
289 285 284 280 282 286 290 294 296 300 298 295 290 290 294 288 284 278 275 275 282 283 286 281 278 276 287 295 296 296 297 297 297 296 295 295 295 295 295 296 297 296 297 297 297 297 297 297 297 297 298 297 298 298 299 299 299 300 300 300 300 300 300 301 301 302 302 302 301 302 303 303 304 305 306 306 307 307 309 311 314 319 324 327 328 329
302 283 278 281 285 289 291 293 297 298 297 292 291 292 290 286 288 283 281 282 282 281 279 275 276 277 285 293 296 296 296 297 297 296 295 295 296 296 295 296 296 296 297 299 297 297 297 297 297 297 296 297 297 297 298 298 299 299 299 300 300 300 300 301 302 302 302 301 301 302 302 303 304 304 304 305 306 307 308 310 313 318 323 327 328 328
283 281 281 275 274 279 282 288 287 292 293 289 288 289 293 294 294 294 292 291 283 282 282 277 273 273 285 295 297 297 296 296 296 296 296 295 295 296 296 296 296 296 297 298 297 297 297 296 296 296 296 296 297 297 297 298 298 298 299 299 299 300 301 301 302 301 301 301 301 301 301 302 302 303 303 305 306 307 308 310 312 315 319 324 326 327
286 282 280 277 273 270 270 273 276 281 284 288 292 292 295 295 294 287 282 281 279 281 285 277 275 281 288 294 295 296 296 296 296 296 297 296 296 296 295 296 295 296 296 296 296 296 296 296 296 296 296 297 297 297 298 297 298 298 298 299 299 300 300 301 302 301 301 301 301 301 301 301 302 302 303 305 306 308 309 310 311 313 318 323 325 326
289 287 282 278 276 276 280 282 285 292 287 284 289 291 291 294 293 290 283 280 280 278 281 282 283 284 288 291 294 293 294 295 296 296 295 295 295 295 294 295 296 296 296 296 297 296 295 295 295 296 296 296 296 296 297 297 298 298 298 298 299 300 301 302 302 301 301 301 301 301 301 302 302 302 303 305 306 308 309 310 311 314 318 324 325 325
285 283 285 282 281 284 286 287 289 291 287 289 289 289 291 291 290 288 283 283 285 282 281 284 288 286 287 290 293 293 294 296 296 295 295 294 295 295 296 296 300 297 296 295 295 294 294 295 295 295 295 296 296 297 297 298 298 298 298 298 299 300 300 301 302 301 300 301 301 301 302 303 303 304 305 307 308 309 310 312 314 318 322 324 323 324
286 281 284 285 284 285 287 288 290 291 290 290 291 290 290 291 290 287 287 290 288 284 282 287 288 287 288 291 294 295 296 296 298 298 297 295 295 295 294 294 294 294 294 293 293 294 294 294 294 294 295 296 296 296 296 297 298 298 298 298 299 299 299 301 302 301 301 301 301 301 302 304 306 307 308 309 309 309 310 311 312 316 320 323 324 325
292 284 286 288 287 288 290 291 292 291 290 290 290 290 291 291 290 290 290 291 289 287 289 289 289 288 291 291 294 297 297 297 297 296 295 294 294 295 294 294 294 294 294 294 293 294 294 294 294 295 295 295 295 296 296 297 297 297 297 298 298 298 300 301 301 301 301 300 300 300 302 303 304 304 305 306 306 307 308 309 310 312 315 319 320 322
293 286 294 290 285 285 289 291 291 290 288 287 289 290 290 289 289 289 289 289 290 289 290 289 287 288 292 295 296 298 298 298 296 294 294 293 294 295 294 294 294 294 294 294 293 294 294 294 294 294 294 294 294 295 296 296 296 297 297 298 298 298 300 301 301 302 301 299 299 299 300 301 301 302 302 303 304 305 307 307 308 309 311 313 318 320
296 288 293 289 284 282 288 289 288 288 287 286 286 287 287 287 285 285 285 288 287 286 287 287 285 285 290 294 296 295 294 294 293 294 293 294 295 295 294 294 294 293 293 294 294 294 294 295 294 294 295 294 294 295 295 296 296 297 298 297 298 299 301 302 302 301 300 299 298 298 299 299 299 299 300 302 302 303 305 305 305 305 306 308 309 312
292 289 287 285 284 280 287 290 287 286 284 282 282 284 287 288 288 289 290 291 292 290 285 280 283 286 288 294 293 292 293 294 295 294 293 294 294 294 294 294 294 293 294 293 295 295 294 294 295 294 294 294 294 295 296 296 296 297 298 298 298 300 301 302 302 301 300 299 298 298 298 298 298 298 299 300 301 302 303 303 302 302 303 304 307 309
293 291 287 290 283 281 286 287 286 281 274 277 286 292 293 290 290 288 287 288 290 291 287 287 290 289 291 292 292 292 292 293 294 295 294 295 294 293 294 294 293 293 293 293 294 294 294 294 294 295 294 294 295 296 297 297 297 298 299 299 299 299 301 302 301 300 300 299 298 298 297 297 298 298 298 299 300 301 301 301 300 300 301 303 304 306
291 290 287 290 284 283 283 284 280 273 276 286 288 292 294 294 294 291 289 291 291 291 291 291 291 291 292 292 293 292 293 295 295 296 296 296 294 293 293 293 293 294 293 293 293 294 293 294 294 293 293 294 296 296 295 296 296 297 297 296 296 298 300 300 298 298 298 298 299 298 298 298 298 298 298 298 298 299 298 298 298 298 299 301 302 304
288 287 286 286 286 285 283 281 273 274 279 287 292 294 294 293 291 289 286 288 290 291 292 289 290 291 292 293 294 294 295 295 296 296 296 296 296 295 293 292 293 294 293 293 294 293 293 294 293 293 294 297 294 295 295 295 296 295 296 296 297 298 299 298 296 296 297 297 298 298 298 298 298 298 298 298 297 297 297 297 297 297 298 300 301 302
294 291 288 285 287 283 283 281 280 285 287 286 288 290 291 288 289 286 281 283 290 292 291 290 290 292 293 293 294 294 294 293 291 293 296 296 296 295 295 294 294 294 294 294 294 294 295 294 294 294 295 293 293 294 295 295 295 294 295 296 297 297 296 295 295 295 296 297 297 299 299 299 298 297 297 297 296 296 296 296 296 296 298 298 299 299
297 291 290 287 285 286 283 282 283 279 277 277 285 291 295 294 295 293 288 283 289 293 293 291 290 292 292 293 293 293 292 289 286 288 293 296 297 296 297 296 295 295 295 295 294 294 294 294 294 295 295 292 293 294 295 294 294 293 294 296 295 295 294 294 294 295 296 296 298 299 299 299 297 296 296 296 295 296 296 296 297 296 298 297 297 297
297 297 293 287 285 285 284 281 280 277 279 283 287 293 297 297 297 293 286 280 286 293 294 294 292 292 292 292 293 291 289 284 283 287 292 293 295 296 295 295 295 295 295 294 294 294 294 294 296 296 294 292 293 294 294 294 293 295 295 295 294 294 293 293 294 295 296 297 298 298 298 297 296 296 295 295 295 296 296 296 297 298 298 297 297 298
292 289 288 286 285 285 284 282 281 284 283 285 289 294 297 300 298 291 281 276 287 290 294 294 293 292 293 293 292 289 286 282 282 289 291 294 294 295 294 295 294 294 294 294 294 294 295 297 293 292 291 292 293 294 294 294 295 296 295 295 294 294 294 293 294 295 297 297 297 296 296 296 296 295 295 295 296 296 296 297 298 298 297 297 298 298
286 287 287 285 285 285 284 284 284 285 287 290 293 296 298 299 295 283 279 284 290 292 295 293 293 294 293 293 292 290 289 287 289 292 294 296 295 295 295 295 294 295 294 294 294 296 294 293 293 292 292 293 294 294 294 295 295 294 295 295 294 294 294 294 295 295 296 296 295 295 295 295 295 295 296 296 296 297 298 298 297 298 297 298 298 298
285 285 284 284 283 283 284 282 282 284 289 293 296 296 297 292 283 283 290 296 295 294 294 294 294 294 294 295 293 291 293 294 296 295 294 294 293 293 294 294 294 294 294 295 296 294 292 292 291 291 293 293 294 295 295 295 294 294 295 295 293 293 294 294 294 295 295 294 294 294 294 294 295 295 296 295 295 294 295 297 297 297 297 295 294 294
284 284 281 281 282 283 282 282 281 279 288 297 294 291 295 285 286 295 296 297 298 296 295 295 296 295 295 295 295 295 295 295 294 294 294 294 293 293 293 293 292 292 292 292 292 293 294 291 291 292 292 293 293 295 294 293 293 294 295 294 294 294 294 294 294 295 295 294 294 293 293 293 294 294 296 295 294 293 293 293 292 292 292 291 290 290
291 285 283 281 285 282 283 281 282 287 291 297 293 286 291 295 297 298 298 296 299 299 297 297 297 298 297 296 295 294 294 294 294 293 293 293 292 291 292 291 291 291 291 292 292 293 293 291 292 292 292 292 293 294 294 293 293 294 294 294 295 294 294 293 293 294 294 294 293 292 292 293 293 294 296 295 294 293 291 291 291 291 290 290 289 289
291 287 289 284 289 286 284 286 290 293 294 297 298 298 298 299 300 300 300 299 299 299 301 299 299 299 298 297 296 295 293 293 293 293 293 292 292 291 291 291 291 292 291 292 292 293 292 291 292 291 292 292 292 293 293 292 293 294 294 295 295 294 293 293 293 293 293 293 293 292 292 292 292 293 294 294 294 292 290 290 290 289 289 289 288 288
294 296 294 292 289 292 293 294 296 296 296 297 299 300 299 298 299 300 299 298 298 298 299 298 299 299 299 298 296 294 295 294 293 293 292 292 292 291 292 291 291 290 291 291 292 291 292 291 290 290 291 292 292 292 294 292 292 293 295 297 296 295 294 293 293 293 293 292 292 292 292 291 291 292 293 293 294 293 292 290 289 289 289 288 287 287
293 294 292 288 291 288 283 290 294 294 295 294 295 297 299 300 299 302 300 299 300 300 300 300 301 301 300 298 298 297 296 294 293 293 293 292 292 292 292 291 291 291 291 290 291 292 291 290 291 291 291 292 291 291 293 291 292 295 297 297 296 295 294 293 292 293 292 292 292 291 291 290 290 291 291 291 292 293 292 291 289 289 288 287 286 286
286 294 290 290 288 286 287 292 293 293 294 295 295 294 295 297 298 299 300 301 301 301 302 301 301 301 299 297 297 296 296 294 293 292 292 292 292 292 291 291 291 290 290 291 291 291 290 290 289 290 291 292 291 291 293 291 292 295 296 296 295 293 291 291 291 291 291 292 291 291 291 290 290 290 290 290 290 290 291 290 290 288 287 287 286 285
291 294 285 288 287 288 291 292 292 292 292 292 293 294 295 296 297 298 300 300 300 301 301 301 301 301 299 298 296 296 295 294 294 293 293 291 291 291 291 291 290 291 291 290 290 291 291 290 291 291 292 292 291 291 292 291 292 295 296 296 295 294 291 290 290 290 290 291 291 290 291 290 290 290 289 289 289 290 290 290 288 288 288 288 288 287
291 287 291 289 285 285 286 288 291 286 286 291 294 296 297 298 299 298 299 299 301 302 301 300 300 300 300 299 298 297 296 294 294 293 292 292 292 291 291 291 290 290 290 290 291 290 292 292 290 291 292 292 290 292 292 291 292 294 296 296 296 294 292 290 289 288 289 290 290 289 290 290 290 289 289 288 288 288 288 289 289 288 287 287 288 288
290 291 289 286 284 285 290 291 292 293 293 294 295 296 297 298 298 298 299 299 300 301 301 300 300 299 299 299 300 298 295 294 293 293 293 292 292 292 292 291 291 290 291 290 289 288 289 290 294 291 291 291 291 293 292 292 291 292 294 296 295 293 290 289 289 288 288 289 289 289 289 289 289 289 289 288 288 288 287 287 288 288 287 287 288 288
Wind_Speed
3 4 5 7 9 8 8 7 8 9 5 0 1 0 3 2 5 3 4 3 1 1 4 5 5 4 5 5 5 2 2 8 9 10 9 10 11 10 9 9 9 10 9 5 5 5 6 5 4 4 5 5 5 5 6 7 7 7 6 5 3 5 1 2 2 2 3 2 2 2 7 10 9 8 8 6 5 6 6 5 5 6 6 6 7 8
3 5 9 12 12 10 9 6 5 1 2 3 3 3 7 2 5 4 3 2 0 1 1 2 1 4 7 6 5 3 6 9 12 8 7 7 7 7 10 10 9 6 4 6 6 5 5 6 7 8 9 10 11 9 9 8 6 6 6 5 1 3 6 3 3 3 3 4 5 5 5 5 4 5 7 7 7 8 9 7 6 8 8 7 7 7
3 8 13 13 12 6 5 2 1 1 3 4 2 3 2 6 4 7 4 3 0 1 4 1 0 2 3 3 3 5 5 6 8 11 9 11 8 7 7 6 6 7 7 7 7 7 8 10 10 9 9 9 8 8 8 7 8 8 8 6 4 2 4 6 4 2 4 5 6 7 6 5 3 3 3 3 3 4 5 7 9 9 9 9 9 8
4 6 17 14 6 6 1 2 3 4 2 1 6 3 6 4 1 4 4 3 2 1 1 1 2 4 3 3 5 3 7 5 6 10 8 9 10 9 8 7 7 8 12 11 9 9 8 8 8 9 8 7 8 9 9 8 8 8 9 9 8 7 4 5 6 4 6 5 5 6 6 6 5 4 4 8 6 7 7 11 11 8 9 10 10 10
8 10 4 4 6 5 2 1 1 1 6 1 3 4 4 1 2 2 3 2 3 4 0 2 4 3 5 2 3 4 4 8 5 9 8 5 8 8 6 8 10 12 11 11 10 8 8 8 7 5 5 6 7 7 7 7 7 7 10 9 8 7 8 6 7 7 6 3 4 5 6 1 2 4 5 6 6 8 8 8 9 11 8 9 9 9
8 8 4 4 2 3 1 2 3 3 1 3 2 3 1 1 2 1 2 3 4 3 3 1 2 2 4 5 2 1 5 5 2 10 6 7 6 6 9 10 10 10 9 11 9 7 6 5 5 6 7 6 5 7 5 6 8 10 10 11 10 8 8 8 7 8 7 5 4 4 6 5 4 4 6 8 10 10 10 13 13 11 9 9 10 10
4 2 4 5 3 2 1 1 2 4 2 0 1 1 3 2 3 2 3 3 1 0 4 1 5 3 4 1 1 3 5 4 1 4 5 6 6 6 9 10 10 10 9 8 8 7 8 6 7 7 7 6 7 6 6 9 10 11 10 10 9 9 8 9 9 9 8 6 5 6 7 7 7 7 9 10 9 9 10 7 8 10 10 11 11 10
0 2 3 4 3 1 2 2 2 3 4 2 2 1 3 2 2 1 1 1 4 2 3 2 3 4 2 4 1 4 9 5 5 4 4 4 5 6 8 10 9 9 9 10 9 8 7 7 7 7 5 5 6 6 8 8 8 10 9 9 9 9 9 9 9 10 9 6 6 6 7 7 8 9 9 9 9 8 9 10 13 11 9 10 10 9
0 1 2 3 3 1 2 2 2 1 2 2 2 1 3 3 2 3 1 3 1 1 7 3 1 1 2 4 1 5 8 4 6 5 4 5 6 8 8 10 10 10 10 9 9 7 7 7 6 5 5 4 5 7 7 6 6 6 7 8 9 10 9 9 11 10 11 9 8 7 6 7 7 9 9 9 9 9 9 10 9 8 9 8 10 11
2 3 5 5 3 2 4 3 1 4 1 3 2 3 1 2 2 1 1 1 2 1 5 3 1 1 4 5 2 1 4 5 6 5 7 7 8 8 9 10 10 10 9 8 8 7 5 5 4 4 4 5 5 5 6 6 6 7 6 8 9 10 9 9 10 10 11 11 9 7 6 9 9 8 8 7 8 8 8 10 11 9 9 8 8 10
5 3 5 4 4 5 4 2 2 1 3 2 3 3 4 4 3 2 5 2 3 1 8 3 2 5 3 5 7 6 6 8 5 2 0 3 5 6 8 9 9 9 8 7 6 5 5 4 4 4 5 4 4 4 5 6 7 7 7 7 8 9 9 9 9 9 10 10 9 8 8 8 10 11 10 8 8 7 7 9 10 9 9 9 9 8
2 0 0 2 4 2 2 0 2 2 3 2 1 1 2 5 6 3 3 4 1 4 5 4 6 7 5 3 5 6 3 9 9 7 6 5 7 8 8 8 9 9 8 7 7 5 4 4 4 4 4 3 3 5 6 5 5 6 7 7 9 10 11 11 11 10 10 9 9 7 9 10 10 10 9 10 10 9 9 8 9 9 8 8 7 8
4 2 2 2 2 9 2 2 4 5 5 6 4 7 2 3 3 2 4 2 2 2 2 3 4 1 5 6 3 2 5 5 4 8 7 6 6 6 7 8 7 6 6 6 6 5 4 4 4 4 3 3 3 4 4 5 5 5 6 7 9 10 10 11 11 11 11 9 9 9 9 9 10 10 10 10 11 9 9 9 9 8 8 8 8 9
5 3 2 2 2 2 6 3 1 2 3 5 3 2 3 1 0 2 4 1 3 6 6 4 4 3 3 5 3 4 2 5 7 6 6 5 8 8 7 6 6 5 6 6 5 5 4 4 4 4 3 3 3 3 2 3 4 5 6 7 8 10 10 10 11 12 12 10 9 9 9 9 9 10 10 9 10 10 9 8 10 10 9 10 10 10
3 4 4 0 1 1 2 4 6 4 1 1 3 1 4 4 2 2 2 2 3 6 5 4 2 3 2 3 5 3 3 4 6 7 4 5 8 7 6 6 6 5 5 5 5 5 4 4 4 4 3 3 1 0 1 2 3 4 5 7 9 10 11 11 12 12 13 12 11 10 10 9 8 9 10 9 8 9 9 8 9 10 9 10 10 10
2 4 5 3 2 2 4 4 4 4 3 1 3 6 6 1 6 2 4 2 3 3 4 0 2 1 2 2 3 3 5 6 5 3 4 7 7 7 7 7 5 5 5 4 4 4 4 4 5 4 3 3 2 0 0 1 2 4 5 6 8 9 10 11 13 13 13 13 12 11 11 11 10 9 9 9 9 9 9 10 10 11 10 9 9 10
3 2 3 7 3 4 6 0 1 5 1 2 1 0 3 5 6 0 2 1 1 3 3 1 1 2 4 3 3 5 4 4 4 5 4 4 5 6 6 5 5 5 5 4 5 4 4 4 5 4 4 3 2 1 0 0 1 3 4 6 9 10 10 12 13 14 14 13 12 12 11 10 10 10 10 10 12 12 10 10 10 10 11 10 10 9
3 5 7 2 7 5 8 1 3 1 5 4 1 4 2 2 4 4 3 2 1 1 4 0 5 2 2 3 3 1 3 1 2 3 4 3 5 5 3 6 7 7 7 6 4 4 5 6 6 4 4 4 3 1 1 0 1 2 3 4 6 10 12 13 13 14 14 14 13 11 12 11 10 10 11 10 10 10 10 10 9 10 10 11 10 10
3 3 3 1 2 5 7 3 2 3 2 5 3 4 2 1 2 2 3 1 0 2 3 2 1 2 5 4 1 5 5 5 3 2 1 3 5 6 4 2 5 5 4 4 4 4 4 5 5 5 5 3 2 1 1 1 1 1 2 3 4 8 11 13 12 13 13 12 10 9 10 11 11 10 10 9 10 9 10 11 11 10 11 11 11 11
2 1 5 2 4 5 4 3 3 1 5 3 2 2 1 5 3 1 4 2 3 4 1 4 1 3 6 5 9 11 8 6 5 4 4 4 4 4 4 4 5 4 4 4 4 4 5 6 6 6 5 4 3 1 1 0 0 2 3 3 4 7 10 12 14 13 13 12 11 11 10 10 10 10 10 10 10 10 10 11 11 12 11 12 11 10
1 1 3 5 3 3 4 1 1 3 2 1 3 2 2 1 2 1 1 2 3 2 3 2 2 5 6 6 8 11 8 7 7 6 5 4 5 6 6 6 5 5 5 4 4 5 5 6 5 4 4 4 2 1 2 0 1 3 3 4 4 8 11 13 13 12 11 11 11 11 11 11 10 12 11 11 11 11 11 10 11 11 11 10 10 10
1 1 3 5 6 1 5 5 3 5 5 4 5 1 1 1 2 1 7 3 1 1 2 1 6 7 9 3 7 8 8 7 7 7 6 6 7 6 5 4 5 6 6 4 4 5 5 5 4 4 4 2 2 1 0 1 2 3 4 4 5 7 9 12 13 11 12 11 10 10 10 11 11 11 11 11 10 11 12 11 11 11 11 11 11 10
3 2 1 2 2 5 8 9 3 2 3 5 5 0 1 2 4 3 1 3 3 3 1 2 2 7 6 2 5 6 6 7 6 6 7 7 8 6 5 5 6 6 6 5 5 5 3 4 4 4 5 4 3 1 1 2 3 3 4 4 5 7 10 12 12 11 11 11 11 12 11 12 12 11 10 11 11 12 12 12 12 12 11 10 10 10
3 1 0 4 6 5 8 2 2 6 4 4 3 1 2 1 2 5 3 2 1 3 2 2 1 5 3 1 4 5 5 6 6 7 7 5 5 5 4 5 6 4 4 2 4 2 4 4 3 4 4 3 2 1 2 3 4 4 4 4 5 7 10 12 11 11 11 11 12 12 12 12 11 11 11 12 11 12 12 12 12 12 12 11 10 10
1 2 3 0 4 7 8 4 2 4 5 2 1 4 2 1 1 1 5 1 1 4 5 1 6 4 2 1 2 0 1 3 6 6 7 6 5 5 4 5 5 4 1 1 3 4 4 3 4 4 3 3 3 3 3 4 4 4 5 4 4 6 9 10 10 10 10 10 11 12 12 12 12 12 13 12 11 12 13 13 13 12 13 12 11 10
1 2 1 1 1 2 4 1 2 3 3 2 1 2 2 2 1 1 1 1 3 2 3 2 3 7 6 3 1 1 0 1 4 5 4 6 7 7 4 5 4 4 3 2 2 4 5 3 3 3 3 4 3 4 3 4 4 5 4 5 3 5 8 10 9 10 10 11 12 12 13 13 12 12 13 13 12 12 13 13 13 13 12 12 11 9
1 1 2 5 5 7 8 7 5 1 2 2 5 3 8 4 4 2 2 2 5 4 4 6 5 7 8 5 3 3 1 1 3 3 4 3 3 2 4 5 4 5 4 2 5 4 2 2 4 4 4 4 4 3 3 4 5 5 5 6 4 4 7 10 10 10 11 11 12 13 13 13 12 12 12 12 12 12 12 13 13 14 13 11 9 8
2 0 3 4 6 8 8 7 6 2 4 5 5 7 7 7 5 4 5 7 5 2 7 2 6 6 9 6 6 3 2 5 2 4 4 4 3 4 4 4 5 1 1 1 2 3 3 3 3 3 4 4 3 3 4 5 5 6 7 6 4 5 6 8 10 11 11 12 11 11 12 12 12 12 12 11 11 11 11 11 11 12 12 9 7 8
1 2 3 3 5 8 7 7 6 4 4 5 6 7 10 11 7 6 7 11 6 6 10 7 7 7 6 8 9 7 5 6 8 9 9 7 5 4 4 4 4 4 3 3 4 4 4 4 3 3 3 2 3 4 5 5 6 6 6 5 4 5 7 8 9 10 11 12 11 11 11 11 9 8 10 10 9 9 10 11 11 12 11 8 7 7
2 2 4 3 3 3 5 5 5 6 3 4 5 8 9 9 12 11 11 8 10 9 10 11 8 10 10 7 7 8 8 8 6 5 2 4 6 5 5 4 3 3 2 2 3 3 3 3 2 2 2 2 3 4 5 5 6 7 7 6 4 5 7 7 9 10 10 12 13 13 13 11 10 11 11 11 12 10 10 10 10 11 11 9 8 7
2 3 1 0 0 2 4 5 4 3 3 4 7 8 7 7 7 7 4 5 6 6 7 6 5 9 7 6 8 8 6 4 2 4 6 6 5 5 5 4 2 1 1 1 2 2 3 2 1 1 1 2 3 4 5 5 6 7 7 5 5 6 7 6 8 9 9 12 12 12 12 11 10 10 11 11 12 11 11 11 10 10 11 12 10 10
3 3 2 2 2 3 2 3 5 5 4 4 7 8 9 8 6 4 4 5 4 4 2 0 2 7 8 5 3 2 4 7 8 8 5 5 6 5 4 3 1 2 1 1 1 2 2 2 1 0 0 2 4 5 5 5 6 6 8 5 5 6 7 7 8 8 9 11 11 11 12 10 10 10 11 12 12 13 12 10 10 10 10 11 12 12
4 3 0 1 3 3 5 1 4 4 5 8 8 6 6 4 3 2 2 3 4 4 3 3 7 6 5 3 4 4 4 7 7 6 3 4 4 5 4 3 1 2 1 1 1 3 3 2 1 0 1 2 4 5 6 6 5 7 8 5 6 6 7 8 8 8 9 11 11 11 11 11 10 10 10 10 11 12 12 11 10 10 11 12 11 11
4 4 3 1 2 1 2 3 2 4 5 6 4 2 1 5 4 5 5 4 3 3 4 5 6 4 2 4 7 6 4 4 6 4 4 8 6 4 1 1 4 4 3 3 2 4 3 2 0 0 1 3 4 4 5 5 5 7 6 5 5 6 7 7 8 8 9 10 10 11 11 11 11 10 10 10 10 11 12 11 10 10 10 10 11 10
4 4 3 2 2 2 1 3 5 5 9 7 5 5 4 6 5 7 5 3 4 4 3 4 6 4 5 7 7 5 4 3 3 5 4 4 4 4 4 4 4 4 3 1 4 4 2 1 0 0 1 3 3 4 4 7 6 5 6 4 4 6 7 6 7 8 8 9 10 10 10 11 11 10 10 10 10 10 11 11 10 10 10 10 10 11
5 5 3 2 2 1 1 1 0 6 4 6 10 10 3 2 2 2 3 3 3 3 3 4 4 4 1 2 3 4 6 5 3 2 4 4 6 6 5 4 4 4 1 3 6 4 3 3 2 1 1 2 2 4 4 6 5 4 5 4 4 5 5 6 7 8 8 9 9 10 10 11 13 13 11 10 10 10 11 11 11 12 11 11 10 9
8 3 4 3 3 4 3 5 8 5 10 5 3 3 1 2 1 2 3 4 2 2 3 2 1 1 3 4 5 4 4 4 3 1 1 4 4 4 3 4 5 3 3 5 5 5 4 3 2 1 1 2 3 4 5 5 5 4 4 4 4 4 6 6 7 8 9 10 9 9 9 10 12 13 14 13 12 11 11 11 12 11 9 10 10 11
8 9 2 4 2 2 2 3 3 2 5 4 5 6 2 2 3 3 3 3 3 3 2 4 5 5 4 3 4 6 5 6 3 2 2 1 2 3 1 4 4 3 5 6 4 4 3 1 0 1 1 2 4 4 4 5 4 3 4 5 5 6 7 7 9 9 9 9 9 9 8 10 12 13 13 13 13 13 12 11 9 9 8 9 11 12
9 9 5 3 1 1 2 3 3 3 5 4 3 2 2 1 5 3 2 5 3 1 1 5 4 2 4 4 2 2 2 1 5 5 6 3 2 3 5 4 3 4 6 6 6 4 2 0 0 1 2 3 5 6 5 4 3 4 5 5 7 7 8 9 10 10 10 10 9 9 10 10 11 11 12 12 13 12 12 11 11 10 8 9 9 10
7 2 4 2 3 4 3 3 4 3 5 2 3 4 2 9 6 4 2 4 2 3 2 4 4 4 3 3 3 3 4 2 4 7 4 6 5 4 5 5 4 5 4 4 4 4 2 0 1 3 4 4 5 5 5 3 4 4 4 6 6 8 9 9 10 9 9 9 10 10 10 9 11 11 12 13 14 13 12 11 10 10 10 9 9 9
1 0 3 8 6 4 5 4 1 5 4 4 4 1 4 4 1 1 4 2 2 3 3 3 5 6 5 4 4 2 5 4 4 6 5 3 1 2 4 1 5 7 7 4 4 2 1 0 0 2 3 4 4 4 4 3 4 4 5 6 7 8 8 8 8 9 7 9 10 11 10 9 10 11 11 11 11 11 11 10 10 10 10 10 9 8
1 2 0 1 3 6 5 4 5 4 6 3 1 2 1 5 1 4 2 2 1 4 4 4 5 6 5 6 5 5 6 5 3 2 4 6 5 4 3 9 7 5 3 4 4 3 1 0 3 4 5 5 5 4 4 3 4 4 6 7 8 8 8 8 8 8 9 9 9 11 10 10 10 10 8 10 12 13 11 11 11 10 11 9 9 11
3 3 3 3 2 1 2 2 2 4 1 3 3 3 3 1 4 3 3 4 4 5 4 4 6 6 5 4 4 5 4 4 5 6 5 4 2 4 8 8 8 7 5 3 1 2 1 2 3 3 3 4 4 4 3 4 5 5 5 8 7 7 7 8 8 8 9 10 10 10 11 10 11 10 8 10 11 13 12 11 11 11 10 11 11 11
2 1 2 2 3 1 3 3 4 4 2 3 3 2 4 7 6 3 1 7 6 5 4 5 5 5 7 7 6 4 4 4 3 3 1 2 5 6 6 5 5 5 4 3 3 2 1 3 2 2 3 4 3 4 2 4 5 5 6 7 6 6 6 7 7 8 9 10 10 9 10 10 10 10 9 10 10 10 11 12 12 10 10 10 10 10
1 0 1 2 2 2 3 4 6 3 4 4 2 4 4 6 5 6 7 7 7 7 7 8 9 7 9 8 7 7 3 4 4 3 3 5 8 7 7 6 6 6 5 5 3 0 1 3 1 3 5 4 4 2 1 3 5 5 6 6 5 6 6 6 7 8 9 9 9 9 9 9 9 9 10 9 9 9 9 11 12 11 11 11 11 10
2 2 2 2 6 3 4 9 8 5 3 4 2 1 2 5 7 2 3 6 5 7 6 9 7 8 7 7 8 3 4 5 4 3 5 6 6 5 5 5 4 4 4 3 1 1 3 3 3 4 4 4 4 2 1 3 4 4 3 4 5 5 5 5 6 7 9 9 8 9 9 10 9 9 9 10 8 8 8 9 10 11 10 11 11 10
1 0 1 2 1 2 6 3 1 1 1 3 4 4 5 5 3 1 5 6 8 8 8 7 7 8 9 7 8 7 6 6 6 5 6 7 8 8 8 8 6 6 6 4 4 4 4 4 4 3 3 3 4 2 1 3 3 1 1 3 4 5 5 4 5 6 7 9 9 8 9 9 9 9 9 9 8 8 7 8 7 9 11 11 12 11
2 1 5 6 5 5 8 8 4 3 4 6 7 5 3 4 5 4 4 5 7 9 8 6 6 7 6 7 7 6 6 5 6 6 6 6 8 8 7 7 7 5 4 5 5 5 4 4 2 1 2 2 2 2 1 3 2 1 2 3 4 3 3 4 5 5 7 8 8 8 8 9 12 12 8 9 8 8 8 8 9 8 10 12 12 13
4 4 5 1 3 5 7 10 9 5 4 5 5 4 5 4 4 5 7 7 6 9 11 4 6 9 8 8 6 7 7 7 6 7 5 3 5 6 7 7 6 6 6 4 4 4 5 4 2 1 1 1 2 1 1 2 0 1 1 2 3 3 3 3 4 5 5 6 7 8 8 8 9 8 8 8 8 8 7 8 9 9 8 9 11 11
3 9 8 5 9 9 9 7 0 5 7 7 5 6 8 6 4 4 5 7 6 10 12 5 4 5 9 8 9 8 7 5 3 3 3 4 6 7 6 5 5 4 5 4 4 4 4 3 2 1 1 1 1 0 2 1 0 1 2 2 3 3 2 3 4 4 5 5 6 7 7 7 8 8 8 8 7 8 8 9 12 10 9 9 15 19
8 10 5 7 7 10 7 7 6 7 8 9 9 7 6 6 5 6 7 8 8 6 6 7 6 3 5 5 6 8 6 6 5 6 6 5 6 8 8 7 5 5 6 5 5 3 5 2 1 1 0 1 1 1 1 0 0 1 2 2 2 2 2 3 3 4 5 5 6 7 7 7 7 8 8 8 8 7 8 7 6 10 13 13 14 17
Wind_Direction
130 192 222 222 229 224 247 221 213 222 220 266 20 263 251 239 279 273 259 263 126 188 242 222 254 263 275 264 274 142 84 49 73 102 108 118 116 118 113 104 103 105 119 132 106 104 103 92 83 70 69 73 68 43 30 25 23 35 37 43 2 306 241 210 246 189 194 212 259 217 202 217 210 200 192 212 251 287 279 255 226 216 221 218 229 236
103 205 236 230 232 217 235 222 188 1 14 331 310 319 296 312 277 257 261 302 255 96 292 357 12 299 285 296 296 49 107 113 119 111 113 102 98 101 113 114 111 123 119 109 87 61 61 49 40 37 33 31 32 13 18 16 9 20 24 28 355 282 312 282 223 200 208 203 207 218 222 229 225 201 197 205 204 214 233 240 224 212 207 207 213 227
154 213 241 229 235 221 212 181 49 50 322 335 287 266 353 286 249 278 285 288 169 102 265 195 157 263 291 335 16 99 123 151 136 127 135 119 110 103 97 103 107 95 81 68 61 46 40 38 33 36 33 28 26 20 17 5 10 1 1 357 354 293 275 288 270 211 217 209 219 227 242 208 210 200 176 199 249 282 257 244 224 210 206 204 207 210
308 265 243 237 215 217 282 42 19 15 43 312 314 328 248 241 346 297 302 314 330 108 220 260 306 287 311 305 45 85 115 137 134 124 124 122 117 112 114 122 111 87 80 72 68 63 54 50 45 39 35 24 26 20 11 5 2 2 5 357 346 336 307 286 285 255 244 218 225 238 249 246 196 136 195 221 199 202 211 239 247 233 215 205 207 207
241 247 297 157 154 145 157 332 291 10 307 276 212 252 270 270 231 217 251 307 334 328 86 42 29 343 346 20 47 70 45 104 86 92 94 94 112 120 116 90 89 101 101 92 80 71 61 57 51 52 38 35 35 21 13 3 4 8 3 348 347 338 336 320 304 292 279 259 245 243 253 358 74 108 202 231 226 222 217 221 239 244 224 215 212 211
273 244 208 86 72 75 103 299 287 131 284 315 250 180 189 191 85 275 334 2 17 334 318 108 19 305 299 305 205 325 89 87 105 111 119 129 130 119 103 99 96 89 92 100 97 93 89 80 64 43 37 38 32 25 5 4 10 13 2 352 340 343 339 334 328 317 300 270 234 234 246 229 197 160 227 226 223 218 217 222 223 222 222 217 218 215
206 241 127 158 137 141 100 177 222 145 195 116 257 85 79 75 27 14 5 62 7 166 282 97 203 264 321 257 268 124 106 83 20 103 136 123 119 114 103 106 108 108 99 90 91 83 70 60 57 43 35 27 27 14 10 14 9 4 3 354 346 344 339 336 334 337 334 299 261 241 236 240 237 214 214 230 227 226 234 234 241 234 221 214 215 217
343 313 33 42 85 92 56 11 287 125 107 265 234 139 79 32 345 280 301 149 221 242 299 14 121 196 279 289 262 124 110 126 120 142 135 135 119 102 105 108 109 105 103 93 83 76 72 63 58 48 29 27 22 12 18 16 6 358 352 348 347 342 340 337 334 337 335 308 285 268 250 241 245 242 241 233 233 226 225 215 228 229 223 216 215 213
114 351 92 86 86 89 143 198 243 64 106 220 249 2 352 308 248 288 295 266 250 320 284 324 39 44 254 264 36 128 113 152 160 161 154 134 119 117 111 103 100 99 101 102 97 89 84 78 70 62 41 21 29 23 21 12 357 346 341 344 343 342 340 336 340 338 333 323 298 275 269 259 249 248 247 249 235 225 225 235 233 230 238 227 216 213
286 165 196 153 128 199 214 220 170 114 57 274 258 335 39 73 64 26 130 113 342 54 275 258 153 185 280 273 324 277 136 197 195 178 160 152 138 128 107 105 105 102 99 99 103 103 99 96 87 79 56 39 26 19 13 4 355 345 340 341 344 338 337 333 336 340 336 334 328 301 271 263 265 260 258 248 251 238 222 228 235 228 230 228 224 222
238 287 171 126 185 193 176 225 187 158 216 238 348 291 1 30 19 23 55 84 58 319 253 216 138 135 253 253 213 185 207 184 189 223 129 130 105 96 112 116 115 109 109 107 106 103 105 99 99 78 67 49 17 9 19 3 346 337 338 335 338 329 327 331 333 336 332 331 334 325 303 278 269 266 260 259 253 249 236 228 228 227 232 228 227 226
349 151 261 249 156 95 106 36 327 20 25 40 18 144 36 334 9 32 341 36 115 273 265 228 175 164 190 289 263 235 247 163 163 156 154 138 130 131 130 123 124 127 128 127 119 124 114 88 69 70 71 64 18 19 13 351 338 337 330 332 333 329 329 328 330 332 328 326 325 327 322 307 286 272 269 262 256 247 242 237 240 230 232 235 228 232
341 243 247 317 190 135 133 67 311 32 23 65 66 42 62 273 31 310 17 339 194 198 256 201 151 46 252 222 237 253 177 157 146 149 158 149 131 134 127 129 131 132 132 125 115 107 112 124 129 103 105 68 32 26 354 340 335 333 329 329 330 325 325 323 324 324 323 322 321 321 318 316 308 293 274 265 261 255 244 238 243 242 238 235 227 230
285 285 306 237 62 296 112 124 299 12 344 64 76 119 78 21 26 256 269 214 310 290 267 217 227 231 260 295 276 209 165 147 143 153 154 143 128 134 133 129 124 114 111 118 129 138 148 155 149 140 136 124 71 18 328 337 342 330 329 326 326 321 321 319 320 320 319 318 316 314 313 311 311 307 295 277 263 258 249 241 241 241 237 239 238 233
47 358 317 95 279 327 96 152 176 179 163 181 164 147 182 142 156 245 226 236 231 231 279 287 142 240 141 247 316 318 130 131 148 145 133 123 127 135 121 114 114 120 128 137 136 153 162 169 151 143 139 122 132 263 324 346 327 338 329 325 324 322 323 323 319 317 316 314 314 313 309 306 304 302 300 292 273 262 257 247 244 243 240 241 239 235
174 212 244 336 18 215 227 221 146 111 41 275 131 82 73 220 142 172 201 190 257 310 337 322 182 175 154 230 274 357 49 33 30 23 116 111 116 114 116 130 139 131 127 134 154 182 177 150 134 141 154 170 179 209 270 322 338 339 326 320 320 319 320 322 321 316 311 308 307 306 307 305 303 301 302 301 294 276 258 253 243 243 240 240 239 237
22 301 279 326 64 357 291 151 251 121 206 267 37 240 201 177 115 177 349 280 77 46 259 204 356 316 309 343 328 4 42 15 35 61 47 49 76 95 119 142 144 150 154 175 178 179 158 141 149 163 168 180 195 207 260 255 314 333 324 325 324 323 322 320 318 312 309 304 302 302 303 303 303 303 304 301 295 290 279 261 250 243 241 238 238 238
142 251 301 14 336 326 351 239 160 138 145 79 129 243 268 92 131 132 211 329 39 166 259 337 182 255 125 235 309 4 70 348 26 76 76 95 104 74 125 143 160 163 178 183 183 182 169 162 167 175 182 173 168 200 220 8 337 338 317 314 323 319 316 315 313 310 307 304 300 298 300 301 299 300 298 294 297 303 297 287 269 257 249 244 238 236
110 348 294 279 333 306 324 30 4 337 69 151 193 199 94 294 341 317 89 328 314 293 273 321 252 248 196 236 268 243 198 191 210 172 95 116 130 167 209 182 137 160 157 169 186 180 162 169 177 184 185 177 181 211 193 151 338 298 286 283 308 306 307 308 309 307 304 301 296 293 295 298 301 298 296 299 300 299 296 293 285 264 252 250 245 242
63 139 301 303 55 298 331 40 286 282 332 11 63 29 250 112 176 134 195 181 132 260 44 292 44 234 209 220 197 212 206 185 181 184 201 182 190 186 183 189 166 174 173 189 201 190 182 182 185 185 165 165 182 171 169 178 255 289 280 290 303 301 302 306 307 307 304 301 296 292 292 293 295 299 300 299 300 297 293 291 287 279 263 250 244 239
358 98 241 275 297 37 350 15 279 225 261 328 34 338 355 294 214 109 342 146 178 196 194 202 287 275 259 214 186 208 200 198 177 184 199 186 190 203 190 190 177 183 186 210 195 197 188 185 196 176 155 164 172 153 167 152 284 278 279 299 305 305 308 307 306 305 303 302 297 294 295 298 301 299 297 295 293 293 293 289 284 277 263 253 245 240
64 13 217 320 2 52 243 217 254 280 218 174 151 147 196 49 4 358 274 342 70 101 236 145 258 265 268 199 195 195 198 192 201 185 197 190 198 200 207 208 170 182 205 207 208 194 192 169 189 128 155 158 146 145 171 255 270 271 299 296 299 300 305 310 310 309 304 302 298 297 300 300 298 294 292 289 293 293 292 291 288 282 269 253 247 239
142 174 84 276 213 257 262 298 288 7 99 126 115 74 214 119 106 110 181 279 356 269 203 188 244 275 246 228 180 193 187 203 201 185 197 193 197 203 217 195 192 180 189 204 205 199 181 169 179 153 162 165 154 177 245 264 272 274 289 298 297 303 309 313 310 307 303 301 302 301 300 296 293 292 293 296 294 290 290 290 290 287 275 257 248 242
107 83 49 293 301 290 308 260 29 40 77 39 358 73 65 2 164 168 174 178 260 297 348 332 234 254 287 236 199 197 197 208 205 190 187 198 199 211 211 193 193 214 232 204 207 167 166 174 148 148 154 152 180 211 253 254 270 276 286 291 297 305 310 314 315 308 303 300 297 298 296 293 293 296 297 292 289 286 288 289 288 287 281 265 250 246
55 298 122 13 355 339 344 358 2 341 51 98 255 277 262 252 93 97 100 118 222 227 194 158 251 283 279 11 57 317 210 189 198 208 177 190 224 216 213 201 204 199 203 247 180 177 169 160 148 164 163 171 195 227 242 260 278 283 289 298 302 305 309 312 313 308 302 299 299 298 298 296 295 293 290 287 285 285 287 287 286 287 283 272 256 246
87 218 110 293 292 314 304 293 271 310 301 282 189 294 275 268 209 64 264 206 174 271 140 170 247 255 274 1 25 342 318 199 206 199 211 196 191 213 228 200 188 191 196 231 136 163 183 182 141 160 169 188 210 222 251 273 279 283 291 294 291 299 308 309 311 309 304 302 302 299 297 294 290 286 286 286 286 286 285 285 284 283 281 267 256 251
237 108 116 150 155 197 222 232 253 275 345 319 282 267 280 261 233 195 115 126 214 230 221 225 209 261 280 274 275 275 185 123 229 252 186 197 201 176 189 173 181 198 210 191 173 186 113 86 164 179 181 195 215 239 268 279 289 296 297 294 292 290 301 307 313 314 310 302 296 292 290 289 287 283 282 282 281 283 285 283 282 281 275 262 254 259
65 286 247 166 195 212 217 230 247 227 254 260 277 282 277 277 265 211 178 227 190 142 260 243 208 214 244 222 216 234 330 343 281 239 219 212 175 167 168 181 205 278 296 253 160 125 162 180 191 194 193 207 234 259 270 279 293 293 290 289 288 291 297 303 310 313 313 309 294 290 289 281 284 285 282 281 284 285 285 287 290 289 278 266 258 257
139 187 268 145 248 232 238 240 254 260 229 238 258 264 273 277 275 236 230 231 167 193 233 241 200 207 241 216 212 197 166 194 219 218 209 193 179 156 146 158 190 208 205 151 170 176 175 175 189 193 200 226 244 266 279 297 299 294 289 278 275 285 293 298 302 307 313 308 290 285 291 291 296 305 312 307 303 308 313 316 317 312 299 278 262 256
30 241 231 189 248 284 265 251 256 247 269 280 262 260 257 259 263 251 243 233 195 218 223 237 237 232 238 241 203 202 203 215 228 217 144 135 173 174 171 167 182 197 177 158 165 179 180 179 183 184 203 236 258 289 295 290 291 292 294 292 279 283 288 297 297 301 303 316 316 312 309 316 323 321 319 317 316 317 320 321 319 317 314 300 281 277
80 269 302 124 163 277 271 287 294 288 258 277 274 265 261 256 251 236 219 244 220 249 259 257 262 273 258 203 204 206 210 225 208 182 178 183 175 182 174 185 188 159 193 140 189 185 179 171 174 201 228 289 298 288 277 279 286 291 294 282 277 285 289 293 296 305 313 316 317 314 313 316 321 322 320 319 318 322 324 323 322 324 331 333 324 305
165 256 357 5 334 293 285 267 290 331 315 268 262 257 258 259 263 255 227 222 163 222 242 246 279 264 276 243 218 209 182 170 174 183 182 190 185 170 155 178 194 178 172 178 190 149 145 148 173 196 270 285 281 285 288 294 296 306 303 292 283 289 291 292 295 302 315 318 314 318 321 320 319 319 319 321 321 320 320 323 325 327 330 330 330 329
173 153 306 312 299 255 256 304 320 330 349 311 284 237 214 231 213 274 287 251 213 158 145 174 238 219 227 174 161 239 181 189 185 188 168 182 189 156 164 188 148 136 166 205 190 157 159 166 184 210 267 281 285 291 294 291 307 310 304 301 285 293 294 290 297 305 311 315 315 321 322 318 316 316 317 318 319 318 321 324 325 328 330 327 325 322
160 164 190 107 245 239 284 332 3 8 318 244 231 177 97 302 272 259 261 223 237 160 212 188 228 236 219 168 174 194 203 186 177 216 186 165 175 192 148 118 156 172 201 219 183 161 175 193 227 293 265 271 281 286 283 301 305 299 301 289 290 295 289 295 318 314 308 308 311 319 320 317 315 314 315 317 319 319 319 322 322 323 321 319 320 318
191 155 207 145 226 260 310 3 356 272 243 245 276 269 275 272 254 244 238 236 254 271 303 308 289 269 218 198 188 183 165 149 123 122 124 164 143 154 156 165 180 189 202 190 145 169 167 141 160 259 315 308 288 290 314 321 312 311 310 301 296 292 290 308 320 316 312 309 308 314 319 319 316 314 316 317 316 317 317 318 319 320 321 316 313 313
189 173 142 185 180 304 262 149 183 241 232 283 300 296 263 143 139 81 338 306 286 262 249 252 255 275 186 154 88 135 130 142 105 121 156 179 159 152 169 187 197 192 183 168 157 164 144 156 161 168 249 260 290 318 319 308 310 321 308 309 298 292 301 315 312 313 311 314 314 314 317 317 322 321 317 316 317 317 316 316 319 318 318 312 308 305
194 118 143 237 169 211 187 181 225 308 319 324 327 316 122 210 203 165 219 269 251 284 277 217 186 138 121 126 129 117 117 82 72 16 270 178 183 193 164 180 179 194 141 158 152 161 175 179 172 209 228 299 314 326 317 305 319 320 323 325 309 302 312 314 320 321 322 322 317 312 314 315 321 327 324 322 318 313 312 313 312 311 310 305 308 308
176 194 178 190 263 174 221 282 310 346 261 276 245 267 272 210 153 169 106 288 301 293 292 134 119 151 141 183 142 142 112 83 108 214 256 261 166 146 203 174 193 151 139 151 144 150 169 192 223 307 336 317 323 324 311 316 318 351 350 333 324 328 323 328 329 327 323 319 321 319 315 324 332 330 327 321 317 314 311 306 298 296 301 303 307 304
67 87 107 179 228 111 170 211 211 229 244 210 264 272 283 263 116 103 59 293 266 257 283 120 134 180 172 156 187 101 86 152 223 239 249 246 261 189 162 203 197 149 149 147 145 144 156 183 249 309 317 340 351 319 318 314 10 17 353 336 336 334 336 337 333 331 329 327 329 334 335 338 337 332 324 315 308 306 304 304 304 302 298 292 289 289
63 34 104 180 215 213 205 220 230 220 254 266 245 268 284 47 1 49 296 281 259 280 223 132 142 156 181 176 138 88 129 205 231 228 231 221 210 211 166 200 178 130 120 120 123 152 158 185 26 358 354 347 318 307 319 340 37 9 352 337 334 346 345 341 334 326 324 333 345 343 340 338 339 335 332 325 319 312 305 299 298 297 295 291 289 292
88 46 151 219 218 210 197 255 301 278 276 249 263 33 77 99 79 219 226 239 246 229 245 176 176 187 170 166 162 156 226 186 197 211 205 196 242 269 248 72 111 132 132 130 145 146 127 290 242 331 337 313 310 324 342 19 34 359 346 344 351 354 347 336 328 326 332 349 345 343 340 341 341 337 335 339 330 325 313 304 295 293 294 295 300 304
287 120 319 79 191 218 210 211 243 268 239 194 73 96 36 58 292 225 234 218 224 257 248 205 204 211 187 178 183 184 202 223 207 157 171 195 198 203 97 113 112 90 106 148 167 160 181 278 11 2 351 325 327 345 20 40 30 3 354 356 358 354 339 333 331 332 354 346 346 346 344 341 341 336 341 353 345 342 342 342 345 337 340 340 331 321
209 155 219 189 228 86 142 216 295 275 355 122 164 22 16 109 240 223 277 282 223 241 238 239 207 226 183 203 209 186 188 173 173 175 185 196 166 91 123 131 127 142 147 147 190 235 152 41 16 1 316 321 325 30 42 53 36 11 4 5 357 344 336 333 334 346 351 347 349 349 346 343 345 341 340 359 356 351 348 350 346 345 346 342 336 328
230 217 247 256 185 176 175 190 199 220 211 208 110 196 222 204 212 224 354 297 289 264 263 266 255 214 186 170 190 196 189 162 205 199 196 66 87 126 121 128 137 140 157 176 175 188 103 58 43 357 332 326 342 43 44 61 44 20 14 359 345 343 336 338 344 348 349 349 349 349 347 348 345 344 342 358 1 358 351 352 351 350 350 345 340 334
80 140 195 227 249 184 214 223 248 243 205 233 160 220 233 257 248 232 220 233 260 255 223 231 226 204 183 175 179 171 175 203 177 192 133 133 140 143 144 154 154 155 160 172 194 224 96 105 88 11 355 333 16 17 26 66 59 34 14 345 343 347 342 342 351 350 349 347 348 347 346 346 346 348 354 350 354 356 357 351 354 357 357 350 348 342
258 247 226 237 258 273 249 236 251 261 271 296 289 253 264 282 283 296 268 261 245 249 241 234 215 190 190 172 159 194 165 179 153 171 143 140 142 159 146 148 154 164 169 163 133 138 113 83 57 39 359 338 26 346 332 59 69 52 355 329 341 348 338 347 353 353 349 346 347 348 345 347 350 352 355 355 349 353 6 360 350 358 359 357 353 349
252 26 9 197 249 323 277 343 61 238 281 272 262 246 225 232 241 276 290 302 297 294 294 255 191 187 182 177 168 175 181 172 160 169 165 149 154 162 163 159 169 169 168 166 179 130 87 81 54 20 347 340 360 327 346 62 53 58 332 338 353 350 342 353 357 354 350 352 348 347 348 349 353 352 354 355 356 0 9 12 353 351 4 6 3 357
302 341 339 253 255 232 260 274 261 272 253 270 279 290 291 307 304 300 275 273 282 287 281 237 177 180 169 178 180 169 177 189 157 182 179 176 166 166 162 164 171 187 200 162 151 127 111 99 103 23 337 341 345 308 24 69 61 1 348 353 3 347 340 360 357 353 352 352 353 349 353 353 355 355 352 355 1 3 5 16 10 2 5 8 5 3
262 342 262 166 271 273 285 288 295 305 306 288 289 245 239 244 263 299 310 307 306 320 309 251 199 177 176 183 174 163 172 203 185 183 194 166 144 156 164 172 182 171 157 133 154 135 133 127 112 85 304 338 318 294 60 58 2 329 2 6 9 350 0 2 344 342 348 351 356 354 357 359 357 357 356 356 360 6 10 12 16 5 5 4 7 8
199 240 256 292 278 268 252 260 133 303 292 290 270 272 285 280 264 269 288 295 314 310 308 267 243 204 184 179 170 167 175 185 201 154 154 154 153 151 154 165 174 154 156 164 150 147 124 122 126 95 270 311 300 337 79 49 278 325 19 19 23 3 9 353 343 350 353 351 358 356 357 360 358 2 6 4 3 3 3 10 24 24 13 5 7 13
228 244 234 237 228 263 259 241 222 235 258 263 268 263 254 252 259 272 272 277 272 261 265 247 228 207 205 201 180 167 173 152 174 135 129 142 156 161 163 165 165 153 155 162 127 125 108 115 123 99 281 314 312 51 78 86 263 12 30 38 51 19 353 348 358 7 357 353 3 360 356 360 3 7 12 10 10 6 7 355 354 18 19 18 15 19